When you browse on this site, cookies collect data to enhance your experience and personalize the content and advertising you see.
Visit our Privacy Policy to learn more. By continuing to use the site, you agree to this use of cookies and data.
  • In Österreich
  • Länderverzeichnis
  • Für 7 Tage
  • Wassertemperatur
  • Wetterkarte
  • News
  • Widgets
  • user-avatar
    Anmelden

    Stündliche Wetter Gorzów Wielkopolski

    Heute, 26 Mai, Dienstag

    Zeit Temperatur Niederschläge Wind Luftdruck Luftfeuchtigkeit
    00:00 +8°C° 0 mm 2 m/S 769 mmHg 96%
    01:00 +7°C° 0 mm 2 m/S 769 mmHg 96%
    02:00 +7°C° 0 mm 2 m/S 769 mmHg 96%
    03:00 +7°C° 0 mm 2 m/S 770 mmHg 97%
    04:00 +7°C° 0 mm 2 m/S 770 mmHg 97%
    05:00 +8°C° 0 mm 2 m/S 770 mmHg 91%
    06:00 +10°C° 0 mm 3 m/S 770 mmHg 85%
    07:00 +12°C° 0 mm 3 m/S 771 mmHg 80%
    08:00 +13°C° 0 mm 3 m/S 771 mmHg 72%
    09:00 +16°C° 0 mm 3 m/S 771 mmHg 63%
    10:00 +17°C° 0 mm 3 m/S 771 mmHg 55%
    11:00 +18°C° 0 mm 4 m/S 771 mmHg 53%
    12:00 +19°C° 0 mm 4 m/S 771 mmHg 51%
    13:00 +20°C° 0 mm 4 m/S 771 mmHg 49%
    14:00 +20°C° 0 mm 4 m/S 770 mmHg 50%
    15:00 +19°C° 0 mm 4 m/S 770 mmHg 51%
    16:00 +19°C° 0 mm 4 m/S 770 mmHg 53%
    17:00 +18°C° 0 mm 3 m/S 770 mmHg 59%
    18:00 +17°C° 0 mm 3 m/S 770 mmHg 65%
    19:00 +16°C° 0 mm 3 m/S 770 mmHg 71%
    20:00 +13°C° 0 mm 3 m/S 771 mmHg 77%
    21:00 +12°C° 0 mm 2 m/S 771 mmHg 83%
    22:00 +10°C° 0 mm 2 m/S 771 mmHg 89%
    23:00 +9°C° 0 mm 2 m/S 771 mmHg 90%

    Morgen, 27 Mai, Mittwoch

    Zeit Temperatur Niederschläge Wind Luftdruck Luftfeuchtigkeit
    00:00 +10°C° 0 mm 1 m/S 771 mmHg 90%
    01:00 +9°C° 0 mm 1 m/S 771 mmHg 91%
    02:00 +9°C° 0 mm 1 m/S 771 mmHg 91%
    03:00 +8°C° 0 mm 1 m/S 770 mmHg 92%
    04:00 +8°C° 0 mm 1 m/S 770 mmHg 92%
    05:00 +10°C° 0 mm 1 m/S 770 mmHg 85%
    06:00 +11°C° 0 mm 1 m/S 770 mmHg 78%
    07:00 +13°C° 0 mm 1 m/S 770 mmHg 72%
    08:00 +15°C° 0 mm 1 m/S 770 mmHg 64%
    09:00 +18°C° 0 mm 1 m/S 770 mmHg 56%
    10:00 +19°C° 0 mm 1 m/S 770 mmHg 49%
    11:00 +19°C° 0 mm 2 m/S 769 mmHg 47%
    12:00 +20°C° 0 mm 2 m/S 769 mmHg 46%
    13:00 +21°C° 0 mm 3 m/S 768 mmHg 44%
    14:00 +21°C° 0 mm 3 m/S 768 mmHg 47%
    15:00 +21°C° 0 mm 3 m/S 768 mmHg 50%
    16:00 +21°C° 0 mm 3 m/S 767 mmHg 53%
    17:00 +19°C° 0.3 mm 3 m/S 767 mmHg 64%
    18:00 +17°C° 0.3 mm 3 m/S 767 mmHg 74%
    19:00 +15°C° 0.3 mm 4 m/S 767 mmHg 85%
    20:00 +14°C° 0 mm 4 m/S 767 mmHg 86%
    21:00 +12°C° 0 mm 3 m/S 767 mmHg 87%
    22:00 +11°C° 0 mm 3 m/S 767 mmHg 88%
    23:00 +10°C° 0 mm 3 m/S 767 mmHg 88%

    übermorgen, 28 Mai, Donnerstag

    Zeit Temperatur Niederschläge Wind Luftdruck Luftfeuchtigkeit
    00:00 +10°C° 0 mm 3 m/S 767 mmHg 87%
    01:00 +9°C° 0 mm 3 m/S 767 mmHg 87%
    02:00 +8°C° 0 mm 3 m/S 767 mmHg 89%
    03:00 +7°C° 0 mm 3 m/S 767 mmHg 91%
    04:00 +5°C° 0 mm 3 m/S 767 mmHg 93%
    05:00 +7°C° 0 mm 4 m/S 767 mmHg 88%
    06:00 +8°C° 0 mm 4 m/S 767 mmHg 84%
    07:00 +10°C° 0 mm 4 m/S 767 mmHg 80%
    08:00 +12°C° 0 mm 4 m/S 767 mmHg 75%
    09:00 +13°C° 0 mm 4 m/S 767 mmHg 70%
    10:00 +15°C° 0 mm 4 m/S 767 mmHg 65%
    11:00 +16°C° 0.1 mm 5 m/S 767 mmHg 62%
    12:00 +17°C° 0.1 mm 5 m/S 767 mmHg 58%
    13:00 +19°C° 0.1 mm 5 m/S 767 mmHg 54%
    14:00 +19°C° 0.1 mm 5 m/S 766 mmHg 54%
    15:00 +17°C° 0.1 mm 5 m/S 766 mmHg 54%
    16:00 +17°C° 0.1 mm 5 m/S 766 mmHg 54%
    17:00 +17°C° 0 mm 4 m/S 766 mmHg 59%
    18:00 +15°C° 0 mm 4 m/S 766 mmHg 64%
    19:00 +14°C° 0 mm 3 m/S 766 mmHg 69%
    20:00 +12°C° 0 mm 3 m/S 766 mmHg 75%
    21:00 +11°C° 0 mm 3 m/S 766 mmHg 80%
    22:00 +9°C° 0 mm 2 m/S 767 mmHg 86%
    23:00 +8°C° 0 mm 2 m/S 767 mmHg 87%

    29 Mai, Freitag

    Zeit Temperatur Niederschläge Wind Luftdruck Luftfeuchtigkeit
    00:00 +8°C° 0 mm 2 m/S 767 mmHg 88%
    01:00 +7°C° 0 mm 2 m/S 767 mmHg 89%
    02:00 +8°C° 0 mm 1 m/S 767 mmHg 88%
    03:00 +7°C° 0 mm 1 m/S 767 mmHg 87%
    04:00 +7°C° 0 mm 1 m/S 767 mmHg 85%
    05:00 +9°C° 0 mm 1 m/S 767 mmHg 76%
    06:00 +11°C° 0 mm 1 m/S 767 mmHg 67%
    07:00 +13°C° 0 mm 1 m/S 767 mmHg 58%
    08:00 +14°C° 0 mm 1 m/S 767 mmHg 54%
    09:00 +16°C° 0 mm 1 m/S 766 mmHg 50%
    10:00 +17°C° 0 mm 2 m/S 766 mmHg 46%
    11:00 +17°C° 0.2 mm 2 m/S 766 mmHg 50%
    12:00 +16°C° 0.2 mm 3 m/S 766 mmHg 53%
    13:00 +16°C° 0.2 mm 3 m/S 765 mmHg 56%
    14:00 +16°C° 0.4 mm 3 m/S 765 mmHg 59%
    15:00 +15°C° 0.4 mm 4 m/S 765 mmHg 61%
    16:00 +15°C° 0.4 mm 4 m/S 764 mmHg 64%
    17:00 +14°C° 0.2 mm 4 m/S 764 mmHg 68%
    18:00 +13°C° 0.2 mm 3 m/S 764 mmHg 71%
    19:00 +12°C° 0.2 mm 3 m/S 764 mmHg 75%
    20:00 +11°C° 0 mm 3 m/S 764 mmHg 76%
    21:00 +9°C° 0 mm 3 m/S 765 mmHg 78%
    22:00 +8°C° 0 mm 3 m/S 765 mmHg 79%
    23:00 +7°C° 0 mm 3 m/S 765 mmHg 82%

    30 Mai, Samstag

    Zeit Temperatur Niederschläge Wind Luftdruck Luftfeuchtigkeit
    00:00 +7°C° 0 mm 3 m/S 765 mmHg 85%
    01:00 +6°C° 0 mm 2 m/S 765 mmHg 88%
    02:00 +5°C° 0 mm 3 m/S 765 mmHg 89%
    03:00 +4°C° 0 mm 3 m/S 765 mmHg 89%
    04:00 +4°C° 0 mm 3 m/S 765 mmHg 90%
    05:00 +7°C° 0 mm 3 m/S 765 mmHg 83%
    06:00 +8°C° 0 mm 4 m/S 765 mmHg 76%
    07:00 +10°C° 0 mm 5 m/S 765 mmHg 70%
    08:00 +12°C° 0 mm 5 m/S 765 mmHg 63%
    09:00 +14°C° 0 mm 6 m/S 764 mmHg 57%
    10:00 +16°C° 0 mm 6 m/S 764 mmHg 50%
    11:00 +16°C° 0 mm 6 m/S 764 mmHg 52%
    12:00 +16°C° 0 mm 6 m/S 764 mmHg 53%
    13:00 +17°C° 0 mm 5 m/S 764 mmHg 55%
    14:00 +16°C° 0 mm 5 m/S 764 mmHg 56%
    15:00 +16°C° 0 mm 6 m/S 763 mmHg 57%
    16:00 +16°C° 0 mm 6 m/S 763 mmHg 58%
    17:00 +15°C° 0 mm 5 m/S 763 mmHg 62%
    18:00 +14°C° 0 mm 5 m/S 763 mmHg 65%
    19:00 +14°C° 0 mm 5 m/S 763 mmHg 69%
    20:00 +12°C° 0 mm 4 m/S 763 mmHg 74%
    21:00 +11°C° 0 mm 4 m/S 763 mmHg 80%
    22:00 +8°C° 0 mm 4 m/S 763 mmHg 86%
    23:00 +9°C° 0 mm 3 m/S 763 mmHg 88%

    31 Mai, Sonntag

    Zeit Temperatur Niederschläge Wind Luftdruck Luftfeuchtigkeit
    00:00 +8°C° 0 mm 3 m/S 763 mmHg 91%
    01:00 +8°C° 0 mm 3 m/S 763 mmHg 93%
    02:00 +8°C° 0 mm 3 m/S 762 mmHg 94%
    03:00 +8°C° 0 mm 3 m/S 762 mmHg 95%
    04:00 +7°C° 0 mm 3 m/S 762 mmHg 95%
    05:00 +9°C° 0 mm 3 m/S 762 mmHg 90%
    06:00 +11°C° 0 mm 3 m/S 762 mmHg 85%
    07:00 +12°C° 0 mm 4 m/S 762 mmHg 79%
    08:00 +14°C° 0 mm 4 m/S 762 mmHg 73%
    09:00 +17°C° 0 mm 4 m/S 762 mmHg 66%
    10:00 +19°C° 0 mm 5 m/S 762 mmHg 59%
    11:00 +20°C° 0 mm 5 m/S 762 mmHg 56%
    12:00 +20°C° 0 mm 5 m/S 762 mmHg 52%
    13:00 +21°C° 0 mm 6 m/S 762 mmHg 48%
    14:00 +20°C° 0 mm 6 m/S 761 mmHg 49%
    15:00 +20°C° 0 mm 6 m/S 761 mmHg 50%
    16:00 +18°C° 0 mm 7 m/S 761 mmHg 51%
    17:00 +17°C° 0 mm 6 m/S 761 mmHg 56%
    18:00 +16°C° 0 mm 5 m/S 761 mmHg 60%
    19:00 +15°C° 0 mm 5 m/S 761 mmHg 64%
    20:00 +14°C° 0 mm 4 m/S 761 mmHg 67%
    21:00 +12°C° 0 mm 4 m/S 761 mmHg 71%
    22:00 +11°C° 0 mm 4 m/S 761 mmHg 74%
    23:00 +11°C° 0 mm 4 m/S 761 mmHg 77%
    Mehr zeigen